Location: 相模原市立博物館
(35.5593°N, 139.3931°E)
Time: 16:33:04
(UTC+09:00)

ISS - Visible Passes

Search period start: 01 August 2021 00:00
Search period end: 11 August 2021 00:00
Orbit: 419 x 421 km, 51.6° (Epoch: 31 July)

Date Brightness Start Highest point End Pass type
(mag) Time Alt. Az. Time Alt. Az. Time Alt. Az.
01 Aug -3.2 20:10:09 10° NW 20:13:26 46° NE 20:14:25 34° E visible
02 Aug -2.3 19:23:03 10° NNW 19:26:01 28° NE 19:28:56 10° E visible
02 Aug -1.7 20:59:55 10° WNW 21:01:54 22° WSW 21:01:54 22° WSW visible
03 Aug -3.1 20:12:16 10° WNW 20:15:32 47° SW 20:16:29 35° S visible
04 Aug -3.8 19:24:51 10° NW 19:28:14 88° NE 19:31:08 13° SE visible
05 Aug -1.2 20:15:32 10° W 20:17:21 14° SW 20:18:51 11° SSW visible
06 Aug -1.9 19:27:19 10° WNW 19:30:08 25° SW 19:32:56 10° S visible
